P/2022 C1 ( PanSTARRS )

Japanese version
Home page
Updated on May 29, 2022

---------------------------------------------------------------------

* Profile

Discovery Date February 3, 2022
Magnitude 20.8 mag
Discoverer Pan-STARRS 2 telescope (Haleakala)

* Orbital Elements

Epoch 2022 Jan. 21.0 TT = JDT 2459600.5
T 2021 Nov. 4.57584 TT                                  Rudenko
q   3.9855921            (2000.0)            P               Q
n   0.05085696     Peri.    9.37493     -0.53712336     -0.84004232
a   7.2149910      Node   113.14822     +0.76842062     -0.52462987
e   0.4475957      Incl.    4.76225     +0.34789114     -0.13817524
P  19.4
From 57 observations 2021 Nov. 6-2022 Apr. 6, mean residual 0".3.

* Magnitudes Graph

        m1 = 12.0 + 5 log d + 10.0 log r

---------------------------------------------------------------------

The orbital elements are published on M.P.E.C. 2022-H04.
The magnitudes graphs are made with Comet for Windows.

---------------------------------------------------------------------

Copyright(C) Seiichi Yoshida (comet@aerith.net). All rights reserved.